Theta_e
315 315 314 315 315 316 315 315 313 313 313 313 314 313 313 313 314 317 320 322 318 317 315 313 313 314 309 301 300 307 314 311 308 306 303 300 297 296 293 293 294 293 294 296 297 297 297
314 314 315 315 314 314 316 315 315 314 314 313 312 313 312 312 313 315 318 321 317 315 313 312 314 314 306 295 307 307 308 306 305 305 303 302 298 298 294 294 293 296 296 296 297 296 296
314 313 314 314 314 314 315 315 315 314 314 313 313 312 312 311 312 314 317 318 316 314 311 313 314 310 301 300 307 308 307 306 306 306 303 304 303 297 296 293 298 297 292 294 295 296 294
313 313 313 314 315 314 314 314 314 314 313 313 313 312 311 311 311 313 318 316 314 312 312 313 313 308 298 309 310 307 307 306 307 309 306 306 306 300 295 298 295 291 292 286 293 294 296
313 313 313 312 314 314 314 314 313 313 313 312 312 312 311 310 311 313 316 314 311 312 313 313 307 303 297 308 303 305 306 301 306 307 307 305 304 296 296 290 288 290 284 286 288 297 295
313 312 312 311 312 313 313 313 313 313 313 312 311 311 311 310 310 313 312 312 312 312 310 309 307 297 301 297 302 303 306 305 302 303 300 299 296 292 292 288 283 285 286 289 289 294 294
313 312 311 311 311 312 312 312 312 312 312 312 311 311 310 309 310 312 310 306 300 296 300 296 297 297 298 303 305 302 304 303 302 299 291 295 289 285 288 290 291 290 288 286 291 293 292
313 312 311 310 311 311 312 311 311 311 311 311 311 310 309 309 314 314 307 300 300 302 293 299 299 301 302 303 295 299 304 297 296 290 294 290 285 292 293 293 291 290 288 288 293 296 293
314 312 311 310 310 310 310 310 310 310 310 310 310 309 308 309 310 307 304 302 306 304 292 295 299 297 298 301 294 295 301 297 293 290 290 287 291 295 292 290 289 289 288 290 289 293 296
315 313 309 308 309 309 309 309 309 310 310 310 309 309 307 309 304 304 300 307 307 305 288 289 293 296 299 299 293 300 302 298 292 289 292 291 295 293 292 290 291 287 294 292 289 289 285
314 310 309 309 308 309 309 308 309 308 308 309 306 308 307 307 304 301 304 309 307 302 278 291 292 303 300 294 294 295 303 298 291 291 292 289 292 291 290 291 294 291 295 292 290 289 289
311 310 309 308 308 308 308 309 308 308 307 306 307 308 307 306 306 307 307 307 301 285 279 287 293 292 292 294 293 296 296 299 298 293 293 292 298 295 294 295 295 295 294 293 293 291 284
311 309 309 308 308 308 307 309 308 306 307 305 306 307 306 307 301 309 307 297 284 281 289 286 287 291 291 290 292 291 290 290 288 286 286 291 292 295 297 290 294 294 289 283 282 282 282
309 308 309 308 308 309 308 306 307 305 306 306 306 306 305 305 309 307 300 288 280 286 285 291 290 291 287 290 290 290 289 288 292 291 288 285 283 290 295 292 289 292 290 285 278 281 283
307 309 309 308 308 308 307 306 307 307 306 306 305 306 305 306 308 304 293 283 285 286 289 289 290 286 286 289 290 289 289 289 292 294 286 286 285 294 295 294 294 292 289 293 288 290 285
308 309 309 308 308 307 307 307 307 306 306 305 304 301 300 307 308 300 288 285 288 290 291 292 285 289 283 286 287 288 289 293 292 295 296 291 285 291 293 296 297 294 295 287 290 282 279
308 308 309 308 308 307 307 307 306 306 305 304 303 294 301 308 305 293 285 287 288 293 293 290 289 288 288 286 289 289 289 293 295 295 296 292 288 289 293 291 290 292 290 291 290 287 283
309 308 308 308 307 307 307 306 306 306 303 303 299 288 302 306 289 290 288 289 290 293 295 294 294 292 290 291 289 290 289 292 298 297 291 294 291 286 288 295 295 294 291 291 288 285 289
308 307 307 307 307 306 306 305 306 305 304 302 294 290 301 301 286 287 289 289 291 292 294 294 293 294 294 292 288 292 293 297 298 296 293 294 290 284 286 291 295 292 294 293 292 293 286
308 306 306 306 307 307 306 303 303 304 303 303 295 287 291 294 295 290 288 288 288 294 294 296 294 295 294 292 294 291 292 296 297 297 296 297 291 287 284 286 290 289 291 292 292 289 288
307 306 306 306 307 308 308 308 305 304 304 303 297 291 293 287 291 291 290 289 288 289 295 297 294 294 293 290 291 291 294 294 297 297 297 296 287 287 289 291 291 291 291 291 289 291 288
307 306 306 307 308 309 309 310 309 306 304 299 293 293 295 292 293 290 288 289 289 291 293 292 292 294 295 292 293 291 293 294 293 296 295 296 289 289 287 290 290 288 291 292 291 292 292
306 305 306 307 309 309 310 310 310 307 305 299 302 302 297 290 289 290 290 290 291 293 294 295 295 295 294 294 298 299 299 298 297 295 293 293 291 289 284 288 288 286 288 290 291 293 293
306 306 307 308 309 310 310 310 310 307 307 305 304 302 296 287 289 290 291 292 292 293 292 295 297 296 296 301 302 301 299 298 297 296 297 292 291 291 286 287 281 288 292 292 291 292 294
305 306 307 309 312 312 310 308 308 307 308 307 306 301 298 288 290 291 291 292 293 295 293 294 296 298 300 298 295 290 291 292 293 295 295 296 293 288 286 285 286 288 290 290 290 290 294
305 306 307 311 312 311 311 310 308 308 306 305 301 301 300 293 289 293 291 293 292 293 294 295 298 300 298 296 293 286 285 287 287 290 295 294 294 290 287 282 279 289 292 294 293 286 296
305 305 307 311 311 311 311 310 306 304 302 304 299 300 300 293 291 291 291 292 295 294 294 295 295 296 297 294 289 287 286 288 285 285 287 289 290 287 286 285 287 292 293 294 284 288 296
305 305 307 309 310 310 309 307 305 302 301 303 298 299 299 294 291 292 291 294 294 296 293 296 294 295 296 291 290 289 287 289 287 289 288 287 286 286 287 284 281 295 292 288 293 298 298
304 305 306 309 308 308 308 307 306 303 301 304 299 298 300 297 292 293 293 293 292 293 295 296 294 295 298 295 293 292 288 289 288 284 291 286 290 288 289 289 293 296 295 296 298 298 298
Wind_Speed
21 21 22 22 23 21 19 18 18 17 17 19 20 19 20 21 21 25 24 15 10 9 6 6 4 8 7 7 6 11 9 8 3 6 9 9 9 11 13 9 14 21 20 21 22 21 22
23 23 24 24 24 24 22 20 19 17 19 18 18 19 20 21 22 24 29 15 10 6 6 4 6 10 8 9 6 7 7 4 5 6 10 9 7 9 10 17 14 14 16 18 21 21 20
24 24 22 24 23 24 23 21 21 17 18 18 19 19 19 21 22 22 28 12 10 8 2 5 8 8 7 7 2 7 5 5 3 6 9 9 7 9 3 11 17 16 18 19 22 19 23
24 25 25 25 26 25 24 22 21 21 17 16 20 18 19 21 20 25 15 13 10 8 6 6 8 7 6 5 3 7 8 6 5 4 4 4 8 10 6 12 13 14 9 14 17 22 22
24 26 26 27 25 25 24 24 22 21 18 16 19 18 18 19 22 23 10 15 7 8 8 8 7 5 4 5 6 7 6 5 6 3 3 3 6 6 8 10 10 14 13 13 18 21 19
25 25 26 26 27 27 25 24 22 21 20 14 16 17 17 18 18 14 10 6 6 10 6 6 3 3 6 3 6 2 4 4 6 3 4 5 5 5 8 8 9 8 9 15 13 9 22
23 25 26 27 27 26 28 26 23 21 21 18 15 15 16 17 18 11 10 6 4 4 6 7 8 4 4 4 2 6 5 6 8 6 5 2 5 10 13 15 17 14 14 15 12 14 19
23 24 26 27 29 29 26 25 26 23 21 19 18 13 13 17 15 14 4 4 2 1 4 14 8 9 1 1 3 6 4 6 9 9 9 3 11 16 9 15 16 14 14 16 4 3 10
23 23 27 33 31 31 31 27 24 24 19 18 15 11 9 7 8 3 3 4 3 7 2 6 9 6 5 6 3 9 7 4 9 10 10 13 13 3 9 8 13 13 15 15 6 4 8
27 19 32 32 31 28 29 26 27 22 23 17 14 10 6 1 2 3 1 6 3 4 2 8 7 5 6 4 4 4 3 5 3 8 10 11 6 6 7 8 7 13 15 5 4 5 2
17 25 27 28 29 29 27 27 26 20 18 20 6 12 6 5 2 3 4 5 6 3 5 8 5 3 5 6 5 8 4 5 7 6 4 4 4 4 8 2 5 6 4 4 12 11 5
22 26 27 30 29 30 28 26 27 20 12 9 12 12 8 5 3 3 5 3 2 4 3 5 5 7 8 7 5 6 5 4 4 6 6 13 1 4 4 2 5 14 9 10 10 11 1
25 27 29 31 30 27 28 26 19 12 9 1 4 9 6 2 2 7 7 2 4 5 5 6 6 7 5 5 7 5 6 9 5 4 4 4 3 3 2 3 4 11 9 3 4 2 3
27 28 30 29 25 26 22 11 8 4 5 6 7 7 3 3 6 7 3 1 6 7 3 2 5 7 2 7 4 6 5 8 7 7 6 2 4 4 6 1 3 2 3 4 3 2 1
26 27 28 26 25 19 19 12 12 11 9 9 7 2 2 3 5 3 2 4 7 5 2 5 9 4 3 4 2 6 7 2 1 1 4 3 3 1 4 3 4 1 4 7 4 6 4
24 25 24 23 22 19 16 13 9 10 8 6 2 3 3 4 8 4 2 6 4 4 3 7 2 2 5 6 5 6 7 1 1 2 4 5 3 4 3 4 8 5 8 4 3 1 5
23 23 21 20 18 17 16 13 7 7 6 6 1 2 5 8 6 2 2 4 3 3 3 2 3 4 5 8 7 2 3 2 3 2 4 4 3 2 4 2 7 1 3 4 4 3 2
22 21 21 19 16 17 13 10 8 7 3 4 2 3 3 7 3 1 2 4 3 6 3 4 4 3 4 6 2 2 5 2 3 5 2 3 4 4 2 2 1 5 7 6 2 4 7
21 20 19 15 16 15 9 12 6 6 3 1 2 3 5 3 2 2 2 3 3 4 2 4 1 2 2 2 2 4 3 1 3 4 8 6 3 1 1 3 1 5 11 9 5 5 5
20 18 18 17 13 9 7 1 4 2 2 1 1 3 2 2 4 5 3 2 3 2 3 4 3 3 4 4 3 4 7 2 1 3 5 5 6 8 7 5 4 6 13 15 6 6 9
20 18 17 17 18 15 15 8 13 14 7 3 1 4 2 3 2 6 4 2 2 3 2 2 2 1 2 3 6 3 2 4 2 1 0 4 4 4 8 7 6 7 10 13 11 6 8
20 19 19 19 19 19 18 14 18 19 12 2 3 4 3 4 6 5 1 3 1 0 3 1 1 3 3 8 8 4 2 2 4 3 4 3 4 1 7 7 6 7 7 9 11 12 12
20 20 22 22 20 19 17 15 14 26 15 3 2 0 2 2 3 4 3 2 4 2 2 4 5 2 6 7 8 7 5 6 5 5 4 5 2 3 3 5 1 5 7 5 5 6 5
20 20 22 24 21 14 9 10 27 30 14 2 1 3 3 3 4 5 2 2 3 3 4 4 8 4 3 2 6 7 8 7 6 7 5 2 3 3 2 4 1 4 2 2 3 3 3
19 21 23 24 19 4 11 19 24 23 11 2 1 3 1 4 5 5 3 4 2 2 3 3 5 5 2 5 2 1 2 2 4 6 5 4 2 1 2 0 1 3 4 2 2 3 3
19 21 21 22 14 1 10 19 18 11 7 2 3 3 3 5 5 1 7 2 2 1 3 3 3 1 4 3 1 1 1 4 0 0 3 3 3 4 1 2 3 6 5 3 2 4 9
18 21 23 17 13 8 10 13 11 7 4 2 3 4 3 3 3 2 6 4 0 1 2 3 4 2 2 2 1 2 1 2 2 2 2 3 2 4 4 3 2 4 6 3 4 4 8
18 18 20 16 7 9 11 12 11 6 4 1 3 4 4 3 4 1 3 2 3 2 3 5 2 3 2 3 2 1 3 2 3 2 3 4 3 3 3 3 5 9 5 5 4 7 7
15 16 17 14 1 6 8 7 3 4 3 1 3 2 6 4 5 3 3 2 3 3 3 2 2 2 4 1 1 1 3 1 4 3 2 4 3 3 4 1 2 10 4 4 1 6 5
Wind_Direction
331 331 328 324 320 313 310 312 313 312 315 321 322 326 328 326 319 316 325 211 190 205 193 242 213 164 223 230 245 139 169 132 212 224 242 263 264 266 253 259 259 264 252 255 262 262 261
335 333 332 327 320 315 315 306 303 305 306 312 316 320 323 324 318 317 323 197 184 190 191 188 172 178 236 250 87 156 184 173 250 252 258 263 238 251 287 273 251 268 271 262 253 252 249
333 330 323 317 316 315 314 314 307 301 300 305 308 316 319 323 319 315 314 168 184 162 151 185 168 210 238 238 178 162 183 234 256 262 278 297 274 206 247 257 259 263 275 264 252 252 244
331 329 326 321 317 313 311 311 305 305 300 299 301 310 316 323 323 317 285 153 149 150 179 180 183 212 256 130 253 215 230 245 223 252 268 322 275 189 230 282 274 256 268 268 257 241 241
330 327 326 321 322 317 309 306 305 307 303 293 292 305 313 322 325 329 147 128 154 141 176 170 191 238 254 130 204 222 218 220 189 232 228 133 147 200 207 231 268 223 257 248 280 260 217
326 324 321 319 316 313 311 308 305 299 302 296 288 299 307 315 319 328 117 137 126 126 158 154 83 230 206 193 163 182 187 219 242 183 205 177 229 268 233 223 247 314 263 292 269 230 212
322 319 319 319 315 315 313 311 304 303 300 296 297 292 298 310 301 287 128 105 181 103 221 204 177 235 116 112 182 198 163 219 224 219 217 202 253 231 246 245 278 283 283 276 281 274 190
317 318 319 319 313 309 304 299 307 304 302 305 299 284 292 325 322 179 185 206 136 43 204 231 252 222 273 329 209 173 186 224 201 235 235 182 244 254 269 264 257 273 272 276 271 265 193
311 314 341 328 309 314 314 310 311 303 293 297 305 273 290 346 65 38 268 210 130 228 171 175 211 231 219 204 234 168 203 224 251 254 235 240 280 219 231 238 235 244 251 262 341 222 243
308 332 342 317 316 320 316 318 313 305 300 289 306 265 262 131 225 135 233 179 243 246 261 147 177 177 171 211 221 163 201 270 222 269 250 266 278 290 303 250 227 264 245 249 195 277 140
353 336 322 323 325 322 312 310 312 318 313 290 255 283 219 235 334 200 52 158 236 218 236 131 132 122 149 209 126 181 169 205 272 253 241 271 287 350 297 239 317 271 305 173 247 271 273
339 331 335 331 328 319 313 310 306 315 321 347 224 220 182 207 209 32 111 125 229 219 160 128 126 175 170 190 171 130 213 203 298 268 250 266 305 225 314 322 256 288 258 227 254 264 359
341 345 338 334 335 329 330 322 339 308 298 247 101 183 195 153 31 131 127 62 225 272 168 132 149 177 198 163 173 188 201 209 239 240 233 189 224 357 296 332 270 251 213 192 203 257 17
352 345 341 340 340 344 3 39 6 294 72 105 145 153 187 252 113 145 101 175 246 73 58 110 139 142 203 146 142 184 215 231 218 259 285 267 185 14 26 270 294 246 266 318 321 77 330
350 345 348 356 357 4 19 18 26 78 94 120 131 178 211 206 162 101 173 242 20 59 101 128 138 155 150 161 321 197 225 244 1 257 305 336 124 293 247 316 312 34 293 338 310 94 55
349 349 359 4 4 11 10 21 58 96 102 123 141 185 104 117 147 140 261 313 56 340 355 185 67 143 168 152 191 237 201 82 80 33 346 12 262 353 295 214 246 242 333 291 238 356 69
347 354 3 2 360 7 10 21 57 99 62 357 156 110 22 128 133 80 260 34 34 292 293 193 312 131 111 148 252 158 51 85 22 41 41 315 284 94 230 26 27 147 336 250 285 323 82
350 357 359 8 6 9 17 20 101 105 84 8 11 79 15 145 93 225 298 42 336 325 195 283 296 25 140 147 106 105 80 57 215 301 287 188 342 39 347 338 294 281 14 4 324 54 65
350 354 350 360 3 1 23 36 61 117 36 130 50 47 55 351 142 154 36 54 291 341 201 349 308 344 247 118 115 90 98 7 303 317 2 358 15 234 25 203 154 34 12 16 32 26 348
347 351 344 342 341 329 316 188 125 178 117 220 189 106 48 307 276 134 83 46 293 63 312 333 341 143 165 88 7 133 127 102 354 15 326 277 45 37 53 50 323 7 19 34 30 55 85
345 344 340 334 329 330 320 261 205 185 191 271 326 84 188 169 158 97 72 303 230 23 262 329 160 268 84 107 104 87 65 133 158 154 113 355 59 19 61 45 52 51 40 44 47 61 98
344 340 334 329 332 335 334 325 187 200 175 249 140 150 83 118 105 96 227 187 46 232 326 2 317 94 326 55 1 139 138 296 17 47 29 31 129 185 69 46 56 58 54 68 68 77 99
342 339 331 330 327 331 329 318 208 170 170 174 193 235 131 65 110 178 182 71 123 319 103 25 338 181 68 35 47 54 48 49 43 356 36 1 60 358 47 10 296 124 19 45 82 49 126
343 336 331 330 328 328 18 61 137 155 192 55 162 193 169 138 195 209 162 93 118 25 349 22 8 347 55 144 113 92 82 76 62 46 3 89 71 355 353 282 209 83 69 346 80 91 87
340 337 336 334 334 20 119 131 148 172 217 298 68 288 272 116 196 233 171 122 125 101 46 31 19 1 34 292 185 181 128 201 50 37 15 353 305 80 280 273 5 182 193 172 228 167 194
343 337 339 338 336 249 145 160 185 208 183 176 58 310 290 147 179 71 185 170 164 85 136 54 71 177 318 295 276 305 4 14 134 151 10 337 304 279 332 288 239 69 133 129 225 229 170
344 340 342 352 9 100 137 129 131 146 168 130 82 347 280 109 101 273 176 177 157 100 76 122 155 243 230 291 272 325 70 332 265 268 220 194 267 238 218 283 286 131 138 170 221 78 143
335 343 343 351 29 81 111 112 127 118 114 77 70 7 318 77 111 7 353 171 172 254 192 117 167 215 235 260 288 75 289 73 270 345 300 228 234 216 214 241 245 141 118 222 70 122 133
333 337 339 342 26 88 89 115 163 129 93 307 94 64 22 34 83 80 79 52 19 16 323 186 30 354 18 289 263 297 226 225 326 277 193 251 260 325 249 14 32 186 7 74 136 155 155